Regional Weather Roundup
Issued by NWS

Home | Current Version | Previous Version | Text Only | Print | Product List | Glossary On
Versions: 1 2 3 4 5 6 7 8 9 10 11 12 13 14 15 16 17 18 19 20 21 22 23 24 25 26 27 28 29 30 31 32 33 34 35 36 37 38 39 40 41 42 43 44 45 46 47 48 49 50
000
ASUS43 KTOP 210708
RWRKS

WEATHER ROUNDUP FOR KANSAS
NATIONAL WEATHER SERVICE GOODLAND KS
100 AM CST WED FEB 21 2018

NOTE:  "FAIR" INDICATES FEW OR NO CLOUDS BELOW 12,000 FEET WITH NO
SIGNIFICANT WEATHER AND/OR OBSTRUCTIONS TO VISIBILITY.

KSZ001>006-013>018-027>032-041>047-210800-
NORTHWEST KANSAS

CITY           SKY/WX    TMP DP  RH WIND       PRES   REMARKS
GOODLAND       CLEAR      3  -3  76 W9        30.34R
HAYS           CLOUDY    15   4  61 N12       30.45R WCI   2
HILL CITY      CLOUDY     9   2  73 NW3       30.45R
RUSSELL        CLOUDY    16   6  65 N13       30.44R WCI   2
$$

KSZ061>065-074>080-084>089-210800-
SOUTHWEST KANSAS

CITY           SKY/WX    TMP DP  RH WIND       PRES   REMARKS
DODGE CITY     CLOUDY    14   1  56 N10       30.40R WCI   1
ELKHART        CLEAR     19   3  49 N9        30.32S
GARDEN CITY    CLOUDY    13   0  56 N9        30.39R
GREAT BEND     CLOUDY    14   6  70 N13       30.44R WCI   0
LIBERAL        FLURRIES  19   2  47 N18       30.36S WCI   4
PRATT          PTCLDY    17   6  62 N13       30.43R WCI   3
$$

KSZ066>073-081>083-090>101-210800-
SOUTHEAST KANSAS

CITY           SKY/WX    TMP DP  RH WIND       PRES   REMARKS
CHANUTE        CLOUDY    22  17  81 N15       30.36  WCI   9
COFFEYVILLE    CLOUDY    24  20  84 N14       30.35R WCI  12
HUTCHINSON     CLOUDY    16   9  74 N13G18    30.43R WCI   2
MEDICINE LODGE   N/A     20  10  65 N16G23    30.43R WCI   6
NEWTON         CLOUDY    15  11  83 N14       30.42R WCI   0
PARSONS        CLOUDY    23  20  88 N13G23    30.36R WCI  11
WICHITA INTL   PTCLDY    20  13  74 N15G24    30.42R WCI   6
WICHITA JABRA  PTCLDY    17  14  88 N15       30.41R WCI   2
WICHITA MCCONL CLOUDY    19  13  77 N15G23    30.41R WCI   5
WINFIELD       CLEAR     21  17  84 N13       30.41R WCI   9
$$

KSZ007>012-019>026-033>040-048>060-102>105-210800-
NORTHEAST KANSAS

CITY           SKY/WX    TMP DP  RH WIND       PRES   REMARKS
CONCORDIA      CLOUDY    12   4  70 N12       30.46R WCI  -2
EMPORIA        CLOUDY    17  12  80 N15       30.38S WCI   2
LAWRENCE       MOCLDY    19  14  81 NW12      30.43R WCI   7
MANHATTAN      CLEAR     18   9  68 N9        30.45R
MARYSVILLE     CLOUDY    14   9  79 N13       30.48R WCI   0
OLATHE IND     PTCLDY    18  15  88 N16       30.40R WCI   3
OLATHE EXE     PTCLDY    18  15  88 N14       30.39R WCI   4
SALINA         CLOUDY    16   9  74 N12       30.48R WCI   3
TOPEKA BILLARD PTCLDY    18  13  80 N13       30.45R WCI   5
TOPEKA FORBES  CLOUDY    19  12  74 N14       30.42R WCI   6
$$




USA.gov is the U.S. government's official web portal to all federal, state and local government web resources and services.